Overview Statistics Trail Chart Weather Telemetry Raw packets
 

This is the latest recevied weather packets stored in our database for station/object TONGUE. If no packets are shown the sender has not sent any weather packets the latest 10 day(s).

<< 5 6 7 8 9 10 11 >>
Time Temp. Humidity Pressure Rain* Wind** Luminosity Snow
1788472803 17.22° C 83% 0 hPa - - - -
1788472203 17.22° C 79% 0 hPa - - - -
1788471603 16.11° C 82% 0 hPa - - - -
1788471004 16.11° C 83% 0 hPa - - - -
1788470402 16.67° C 86% 0 hPa - - - -
1788469802 16.11° C 84% 0 hPa - - - -
1788469203 15.56° C 86% 0 hPa - - - -
1788468603 15.56° C 84% 0 hPa - - - -
1788468005 15.56° C 86% 0 hPa - - - -
1788467403 15.56° C 82% 0 hPa - - - -
1788466803 15° C 82% 0 hPa - - - -
1788466202 15° C 83% 0 hPa - - - -
1788465619 15° C 90% 0 hPa - - - -
1788465002 14.44° C 92% 0 hPa - - - -
1788464403 13.89° C 99% 0 hPa - - - -
1788463803 14.44° C 98% 0 hPa - - - -
1788463203 13.89° C 88% 0 hPa - - - -
1788462608 13.89° C 94% 0 hPa - - - -
1788462003 13.89° C 100% 0 hPa - - - -
1788461402 13.89° C 100% 0 hPa - - - -
1788460803 13.89° C - - - - - -
1788460203 13.89° C - - - - - -
1788459003 13.89° C 100% 0 hPa - - - -
1788458404 13.33° C 100% 0 hPa - - - -
1788457803 12.78° C 100% 0 hPa - - - -

* Rain since midnight (hover to see other rain measurements)
** Current wind speed in m/s (hover to see current wind gust speed)